{"data":{"norad_id":49447,"intl_designator":"2021-104AR","name":"STARLINK-3115","alt_names":[],"object_type":"PAYLOAD","status":"ACTIVE","operator":null,"country":"US","launch_date":"2021-11-13","launch_site_code":"AFETR","launch_vehicle":null,"mission":null,"orbit_class":"UNKNOWN","rcs_meters":null,"size_class":null,"mass_kg":null,"dimensions":null,"purposes":["comms"],"wikipedia_slug":null,"has_3d_model":false,"image_url":null,"decayed_at":null,"tle_current":{"epoch":"2026-05-24T15:56:48.248448Z","epoch_age_seconds":107208,"freshness":"FRESH","line1":"1 49447U 21104AR  26144.66444732  .00000359  00000+0  40665-4 0  9990","line2":"2 49447  53.2153 238.0538 0001190  92.8120 267.3008 15.08835515250241","mean_motion":15.08835515,"eccentricity":0.000119,"inclination_deg":53.2153,"raan_deg":238.0538,"arg_perigee_deg":92.812,"mean_anomaly_deg":267.3008,"bstar":4.0665e-5,"rev_number":25024,"period_min":95.437838365039,"perigee_km":538.93386845117,"apogee_km":540.58032724645,"semimajor_km":6917.8940978488,"source":"CELESTRAK","updated_at":"2026-05-25T13:38:16.803095Z"}}}